Time,TemperatureF,DewpointF,PressureIn,WindDirection,WindDirectionDegrees,WindSpeedMPH,WindSpeedGustMPH,Humidity,HourlyPrecipIn,Conditions,Clouds,dailyrainin,SoftwareType,DateUTC
2013-03-03 00:00:00,26.9,20.7,30.11,NNW,332,3.0,3.0,77,0.00,,,0.00,Wunderground v.1.15,2013-03-03 05:00:00,
2013-03-03 00:01:00,26.9,20.7,30.11,NNW,332,4.0,4.0,77,0.00,,,0.00,Wunderground v.1.15,2013-03-03 05:01:00,
2013-03-03 00:05:00,26.7,20.5,30.11,NW,322,6.0,6.0,77,0.00,,,0.00,Wunderground v.1.15,2013-03-03 05:05:00,
2013-03-03 00:10:00,26.7,20.5,30.11,NW,317,4.0,4.0,77,0.00,,,0.00,Wunderground v.1.15,2013-03-03 05:10:00,
2013-03-03 00:15:00,26.6,20.4,30.11,NW,310,5.0,5.0,77,0.00,,,0.00,Wunderground v.1.15,2013-03-03 05:15:00,
2013-03-03 00:21:00,26.4,20.2,30.11,NNW,336,1.0,3.0,77,0.00,,,0.00,Wunderground v.1.15,2013-03-03 05:21:00,
2013-03-03 00:26:00,26.4,20.5,30.12,NW,319,4.0,6.0,78,0.00,,,0.00,Wunderground v.1.15,2013-03-03 05:26:00,
2013-03-03 00:31:00,26.6,20.4,30.12,NW,319,0.0,3.0,77,0.00,,,0.00,Wunderground v.1.15,2013-03-03 05:31:00,
2013-03-03 00:36:00,26.7,20.8,30.12,NW,309,4.0,4.0,78,0.00,,,0.00,Wunderground v.1.15,2013-03-03 05:36:00,
2013-03-03 00:41:00,26.7,20.8,30.11,NW,311,3.0,3.0,78,0.00,,,0.00,Wunderground v.1.15,2013-03-03 05:41:00,
2013-03-03 00:46:00,26.7,21.1,30.11,WNW,302,3.0,4.0,79,0.00,,,0.00,Wunderground v.1.15,2013-03-03 05:46:00,
2013-03-03 00:52:00,26.7,21.1,30.11,NW,304,3.0,3.0,79,0.00,,,0.00,Wunderground v.1.15,2013-03-03 05:52:00,
2013-03-03 00:58:00,26.7,21.1,30.11,NW,314,3.0,5.0,79,0.00,,,0.00,Wunderground v.1.15,2013-03-03 05:58:00,
2013-03-03 01:03:00,26.7,21.1,30.11,WNW,298,1.0,5.0,79,0.00,,,0.00,Wunderground v.1.15,2013-03-03 06:03:00,
2013-03-03 01:09:00,26.9,21.3,30.11,NW,311,5.0,5.0,79,0.00,,,0.00,Wunderground v.1.15,2013-03-03 06:09:00,
2013-03-03 01:14:00,26.9,21.0,30.11,NW,313,4.0,5.0,78,0.00,,,0.00,Wunderground v.1.15,2013-03-03 06:14:00,
2013-03-03 01:19:00,26.9,21.3,30.11,NW,314,5.0,5.0,79,0.00,,,0.00,Wunderground v.1.15,2013-03-03 06:19:00,
2013-03-03 01:24:00,26.9,21.3,30.11,NW,314,1.0,3.0,79,0.00,,,0.00,Wunderground v.1.15,2013-03-03 06:24:00,
2013-03-03 01:29:00,26.9,21.3,30.11,NW,314,1.0,3.0,79,0.00,,,0.00,Wunderground v.1.15,2013-03-03 06:29:00,
2013-03-03 01:35:00,26.9,21.3,30.11,NW,314,1.0,5.0,79,0.00,,,0.00,Wunderground v.1.15,2013-03-03 06:35:00,
2013-03-03 01:40:00,26.9,21.3,30.11,NW,314,7.0,7.0,79,0.00,,,0.00,Wunderground v.1.15,2013-03-03 06:40:00,
2013-03-03 01:45:00,26.7,20.8,30.11,NW,314,2.0,4.0,78,0.00,,,0.00,Wunderground v.1.15,2013-03-03 06:45:00,
2013-03-03 01:50:00,26.7,21.1,30.11,NW,314,2.0,4.0,79,0.00,,,0.00,Wunderground v.1.15,2013-03-03 06:50:00,
2013-03-03 01:55:00,26.7,21.1,30.11,NW,314,1.0,4.0,79,0.00,,,0.00,Wunderground v.1.15,2013-03-03 06:55:00,
2013-03-03 02:01:00,26.7,21.1,30.11,NW,314,2.0,3.0,79,0.00,,,0.00,Wunderground v.1.15,2013-03-03 07:01:00,
2013-03-03 02:06:00,26.7,21.1,30.11,NW,319,5.0,6.0,79,0.00,,,0.00,Wunderground v.1.15,2013-03-03 07:06:00,
2013-03-03 02:11:00,26.7,21.4,30.12,WNW,303,3.0,6.0,80,0.00,,,0.00,Wunderground v.1.15,2013-03-03 07:11:00,
2013-03-03 02:16:00,26.6,21.3,30.12,NW,323,3.0,9.0,80,0.00,,,0.00,Wunderground v.1.15,2013-03-03 07:16:00,
2013-03-03 02:21:00,26.6,21.3,30.12,NW,321,2.0,3.0,80,0.00,,,0.00,Wunderground v.1.15,2013-03-03 07:21:00,
2013-03-03 02:26:00,26.6,21.3,30.11,NW,323,2.0,7.0,80,0.00,,,0.00,Wunderground v.1.15,2013-03-03 07:26:00,
2013-03-03 02:31:00,26.6,21.3,30.11,NW,316,6.0,6.0,80,0.00,,,0.00,Wunderground v.1.15,2013-03-03 07:31:00,
2013-03-03 02:36:00,26.6,21.3,30.11,NW,319,5.0,8.0,80,0.00,,,0.00,Wunderground v.1.15,2013-03-03 07:36:00,
2013-03-03 02:41:00,26.4,21.1,30.11,NW,319,3.0,4.0,80,0.00,,,0.00,Wunderground v.1.15,2013-03-03 07:41:00,
2013-03-03 02:46:00,26.4,21.1,30.11,NW,319,2.0,4.0,80,0.00,,,0.00,Wunderground v.1.15,2013-03-03 07:46:00,
2013-03-03 02:51:00,26.4,21.4,30.11,NNW,333,3.0,5.0,81,0.00,,,0.00,Wunderground v.1.15,2013-03-03 07:51:00,
2013-03-03 02:56:00,26.4,21.1,30.11,NNW,333,1.0,5.0,80,0.00,,,0.00,Wunderground v.1.15,2013-03-03 07:56:00,
2013-03-03 03:01:00,26.4,21.1,30.11,NW,326,4.0,5.0,80,0.00,,,0.00,Wunderground v.1.15,2013-03-03 08:01:00,
2013-03-03 03:06:00,26.4,21.1,30.11,NNW,328,1.0,5.0,80,0.00,,,0.00,Wunderground v.1.15,2013-03-03 08:06:00,
2013-03-03 03:11:00,26.4,21.1,30.10,NW,320,5.0,5.0,80,0.00,,,0.00,Wunderground v.1.15,2013-03-03 08:11:00,
2013-03-03 03:16:00,26.6,21.3,30.10,NW,320,0.0,5.0,80,0.00,,,0.00,Wunderground v.1.15,2013-03-03 08:16:00,
2013-03-03 03:21:00,26.4,21.1,30.10,NW,320,3.0,5.0,80,0.00,,,0.00,Wunderground v.1.15,2013-03-03 08:21:00,
2013-03-03 03:26:00,26.4,21.4,30.10,NW,324,2.0,6.0,81,0.00,,,0.00,Wunderground v.1.15,2013-03-03 08:26:00,
2013-03-03 03:32:00,26.4,21.4,30.10,NW,323,2.0,4.0,81,0.00,,,0.00,Wunderground v.1.15,2013-03-03 08:32:00,
2013-03-03 03:36:00,26.4,21.1,30.10,NW,325,4.0,7.0,80,0.00,,,0.00,Wunderground v.1.15,2013-03-03 08:36:00,
2013-03-03 03:42:00,26.3,21.0,30.10,NW,314,2.0,6.0,80,0.00,,,0.00,Wunderground v.1.15,2013-03-03 08:42:00,
2013-03-03 03:47:00,26.3,21.0,30.10,NW,319,3.0,6.0,80,0.00,,,0.00,Wunderground v.1.15,2013-03-03 08:47:00,
2013-03-03 03:52:00,26.3,21.0,30.10,NW,307,3.0,6.0,80,0.00,,,0.00,Wunderground v.1.15,2013-03-03 08:52:00,
2013-03-03 03:57:00,26.3,21.0,30.10,NW,307,0.0,6.0,80,0.00,,,0.00,Wunderground v.1.15,2013-03-03 08:57:00,
2013-03-03 04:02:00,26.1,20.8,30.10,NW,306,5.0,10.0,80,0.00,,,0.00,Wunderground v.1.15,2013-03-03 09:02:00,
2013-03-03 04:07:00,26.1,20.8,30.10,WSW,252,5.0,10.0,80,0.00,,,0.00,Wunderground v.1.15,2013-03-03 09:07:00,
2013-03-03 04:12:00,26.0,20.7,30.09,NW,314,6.0,7.0,80,0.00,,,0.00,Wunderground v.1.15,2013-03-03 09:12:00,
2013-03-03 04:17:00,25.8,20.2,30.09,NW,312,5.0,12.0,79,0.00,,,0.00,Wunderground v.1.15,2013-03-03 09:17:00,
2013-03-03 04:22:00,25.8,20.2,30.09,NW,326,9.0,9.0,79,0.00,,,0.00,Wunderground v.1.15,2013-03-03 09:22:00,
2013-03-03 04:27:00,25.8,19.9,30.10,NNW,337,3.0,9.0,78,0.00,,,0.00,Wunderground v.1.15,2013-03-03 09:27:00,
2013-03-03 04:32:00,25.8,20.2,30.10,NNW,332,3.0,4.0,79,0.00,,,0.00,Wunderground v.1.15,2013-03-03 09:32:00,
2013-03-03 04:37:00,25.8,20.2,30.10,NW,313,0.0,6.0,79,0.00,,,0.00,Wunderground v.1.15,2013-03-03 09:37:00,
2013-03-03 04:42:00,25.7,20.1,30.10,NW,313,3.0,6.0,79,0.00,,,0.00,Wunderground v.1.15,2013-03-03 09:42:00,
2013-03-03 04:47:00,25.7,20.1,30.10,NW,323,3.0,6.0,79,0.00,,,0.00,Wunderground v.1.15,2013-03-03 09:47:00,
2013-03-03 04:52:00,25.7,20.1,30.10,NW,323,1.0,4.0,79,0.00,,,0.00,Wunderground v.1.15,2013-03-03 09:52:00,
2013-03-03 04:57:00,25.7,20.1,30.10,NW,323,0.0,5.0,79,0.00,,,0.00,Wunderground v.1.15,2013-03-03 09:57:00,
2013-03-03 05:02:00,25.7,20.4,30.10,NW,323,2.0,4.0,80,0.00,,,0.00,Wunderground v.1.15,2013-03-03 10:02:00,
2013-03-03 05:07:00,25.7,20.4,30.10,NW,323,0.0,4.0,80,0.00,,,0.00,Wunderground v.1.15,2013-03-03 10:07:00,
2013-03-03 05:12:00,25.7,20.4,30.10,NNW,327,5.0,5.0,80,0.00,,,0.00,Wunderground v.1.15,2013-03-03 10:12:00,
2013-03-03 05:17:00,25.7,20.4,30.10,NNW,327,0.0,5.0,80,0.00,,,0.00,Wunderground v.1.15,2013-03-03 10:17:00,
2013-03-03 05:22:00,25.7,20.4,30.10,NNW,327,0.0,2.0,80,0.00,,,0.00,Wunderground v.1.15,2013-03-03 10:22:00,
2013-03-03 05:27:00,25.7,20.7,30.10,NNW,327,1.0,3.0,81,0.00,,,0.00,Wunderground v.1.15,2013-03-03 10:27:00,
2013-03-03 05:32:00,25.7,20.7,30.10,NNW,327,2.0,4.0,81,0.00,,,0.00,Wunderground v.1.15,2013-03-03 10:32:00,
2013-03-03 05:37:00,25.7,20.7,30.10,NW,308,6.0,7.0,81,0.00,,,0.00,Wunderground v.1.15,2013-03-03 10:37:00,
2013-03-03 05:42:00,25.7,20.4,30.10,NW,305,2.0,8.0,80,0.00,,,0.00,Wunderground v.1.15,2013-03-03 10:42:00,
2013-03-03 05:47:00,25.7,20.1,30.10,NW,314,5.0,10.0,79,0.00,,,0.00,Wunderground v.1.15,2013-03-03 10:47:00,
2013-03-03 05:52:00,25.7,19.2,30.10,NNW,340,10.0,10.0,76,0.00,,,0.00,Wunderground v.1.15,2013-03-03 10:52:00,
2013-03-03 05:57:00,25.8,18.3,30.10,NW,314,6.0,11.0,73,0.00,,,0.00,Wunderground v.1.15,2013-03-03 10:57:00,
2013-03-03 06:02:00,25.8,18.0,30.10,NW,310,2.0,7.0,72,0.00,,,0.00,Wunderground v.1.15,2013-03-03 11:02:00,
2013-03-03 06:07:00,25.8,17.7,30.10,NNW,332,3.0,12.0,71,0.00,,,0.00,Wunderground v.1.15,2013-03-03 11:07:00,
2013-03-03 06:12:00,25.8,18.0,30.11,NNW,330,2.0,6.0,72,0.00,,,0.00,Wunderground v.1.15,2013-03-03 11:12:00,
2013-03-03 06:17:00,25.8,18.3,30.11,NNW,330,2.0,6.0,73,0.00,,,0.00,Wunderground v.1.15,2013-03-03 11:17:00,
2013-03-03 06:22:00,25.8,18.3,30.11,NW,312,4.0,9.0,73,0.00,,,0.00,Wunderground v.1.15,2013-03-03 11:22:00,
2013-03-03 06:27:00,25.8,18.3,30.11,NW,313,4.0,9.0,73,0.00,,,0.00,Wunderground v.1.15,2013-03-03 11:27:00,
2013-03-03 06:32:00,25.8,18.7,30.11,NW,314,4.0,5.0,74,0.00,,,0.00,Wunderground v.1.15,2013-03-03 11:32:00,
2013-03-03 06:37:00,25.7,18.6,30.11,NW,313,0.0,5.0,74,0.00,,,0.00,Wunderground v.1.15,2013-03-03 11:37:00,
2013-03-03 06:42:00,25.6,18.8,30.11,NW,308,2.0,5.0,75,0.00,,,0.00,Wunderground v.1.15,2013-03-03 11:42:00,
2013-03-03 06:47:00,25.6,19.1,30.11,NW,309,7.0,7.0,76,0.00,,,0.00,Wunderground v.1.15,2013-03-03 11:47:00,
2013-03-03 06:52:00,25.4,19.2,30.11,NW,311,0.0,5.0,77,0.00,,,0.00,Wunderground v.1.15,2013-03-03 11:52:00,
2013-03-03 06:57:00,25.4,19.2,30.12,NW,311,3.0,6.0,77,0.00,,,0.00,Wunderground v.1.15,2013-03-03 11:57:00,
2013-03-03 07:03:00,25.4,19.2,30.12,NW,311,0.0,3.0,77,0.00,,,0.00,Wunderground v.1.15,2013-03-03 12:03:00,
2013-03-03 07:08:00,25.3,19.1,30.12,NW,316,0.0,5.0,77,0.00,,,0.00,Wunderground v.1.15,2013-03-03 12:08:00,
2013-03-03 07:13:00,25.3,19.1,30.12,NNW,347,3.0,10.0,77,0.00,,,0.00,Wunderground v.1.15,2013-03-03 12:13:00,
2013-03-03 07:18:00,25.1,18.3,30.12,NW,321,4.0,11.0,75,0.00,,,0.00,Wunderground v.1.15,2013-03-03 12:18:00,
2013-03-03 07:23:00,25.1,18.3,30.12,North,2,0.0,5.0,75,0.00,,,0.00,Wunderground v.1.15,2013-03-03 12:23:00,
2013-03-03 07:28:00,25.3,18.8,30.12,North,0,1.0,5.0,76,0.00,,,0.00,Wunderground v.1.15,2013-03-03 12:28:00,
2013-03-03 07:33:00,25.1,18.3,30.12,North,11,2.0,5.0,75,0.00,,,0.00,Wunderground v.1.15,2013-03-03 12:33:00,
2013-03-03 07:38:00,25.1,18.3,30.12,North,7,5.0,5.0,75,0.00,,,0.00,Wunderground v.1.15,2013-03-03 12:38:00,
2013-03-03 07:43:00,25.3,18.5,30.13,NW,314,3.0,3.0,75,0.00,,,0.00,Wunderground v.1.15,2013-03-03 12:43:00,
2013-03-03 07:48:00,25.1,18.0,30.13,NW,314,0.0,4.0,74,0.00,,,0.00,Wunderground v.1.15,2013-03-03 12:48:00,
2013-03-03 07:53:00,25.3,18.8,30.13,NW,314,0.0,3.0,76,0.00,,,0.00,Wunderground v.1.15,2013-03-03 12:53:00,
2013-03-03 07:58:00,25.3,18.5,30.14,NW,314,0.0,4.0,75,0.00,,,0.00,Wunderground v.1.15,2013-03-03 12:58:00,
2013-03-03 08:03:00,25.3,18.5,30.14,NW,319,4.0,5.0,75,0.00,,,0.00,Wunderground v.1.15,2013-03-03 13:03:00,
2013-03-03 08:08:00,25.3,18.5,30.14,NW,319,0.0,5.0,75,0.00,,,0.00,Wunderground v.1.15,2013-03-03 13:08:00,
2013-03-03 08:13:00,25.4,18.9,30.14,NW,319,0.0,4.0,76,0.00,,,0.00,Wunderground v.1.15,2013-03-03 13:13:00,
2013-03-03 08:18:00,25.4,18.3,30.14,NW,319,0.0,5.0,74,0.00,,,0.00,Wunderground v.1.15,2013-03-03 13:18:00,
2013-03-03 08:23:00,25.6,18.8,30.14,NW,311,4.0,7.0,75,0.00,,,0.00,Wunderground v.1.15,2013-03-03 13:23:00,
2013-03-03 08:28:00,25.6,18.1,30.14,NNW,328,3.0,7.0,73,0.00,,,0.00,Wunderground v.1.15,2013-03-03 13:28:00,
2013-03-03 08:33:00,25.6,18.5,30.14,NNW,328,1.0,3.0,74,0.00,,,0.00,Wunderground v.1.15,2013-03-03 13:33:00,
2013-03-03 08:38:00,25.6,18.1,30.14,NNW,328,1.0,5.0,73,0.00,,,0.00,Wunderground v.1.15,2013-03-03 13:38:00,
2013-03-03 08:43:00,25.6,18.5,30.14,NNW,328,3.0,5.0,74,0.00,,,0.00,Wunderground v.1.15,2013-03-03 13:43:00,
2013-03-03 08:48:00,25.6,18.8,30.14,NNW,328,2.0,5.0,75,0.00,,,0.00,Wunderground v.1.15,2013-03-03 13:48:00,
2013-03-03 08:54:00,25.6,19.1,30.14,NNW,328,1.0,4.0,76,0.00,,,0.00,Wunderground v.1.15,2013-03-03 13:54:00,
2013-03-03 08:59:00,25.6,19.1,30.14,NNW,328,0.0,6.0,76,0.00,,,0.00,Wunderground v.1.15,2013-03-03 13:59:00,
2013-03-03 09:04:00,25.6,19.4,30.14,NW,309,4.0,5.0,77,0.00,,,0.00,Wunderground v.1.15,2013-03-03 14:04:00,
2013-03-03 09:09:00,25.6,19.1,30.14,NW,309,0.0,5.0,76,0.00,,,0.00,Wunderground v.1.15,2013-03-03 14:09:00,
2013-03-03 09:14:00,25.7,19.2,30.15,NW,309,5.0,6.0,76,0.00,,,0.00,Wunderground v.1.15,2013-03-03 14:14:00,
2013-03-03 09:19:00,25.7,19.2,30.15,NW,316,2.0,6.0,76,0.00,,,0.00,Wunderground v.1.15,2013-03-03 14:19:00,
2013-03-03 09:24:00,25.7,19.5,30.15,NW,316,0.0,3.0,77,0.00,,,0.00,Wunderground v.1.15,2013-03-03 14:24:00,
2013-03-03 09:29:00,26.0,19.5,30.14,NW,316,1.0,4.0,76,0.00,,,0.00,Wunderground v.1.15,2013-03-03 14:29:00,
2013-03-03 09:34:00,26.0,19.5,30.14,NW,317,5.0,6.0,76,0.00,,,0.00,Wunderground v.1.15,2013-03-03 14:34:00,
2013-03-03 09:39:00,26.0,19.8,30.14,NW,317,0.0,6.0,77,0.00,,,0.00,Wunderground v.1.15,2013-03-03 14:39:00,
2013-03-03 09:44:00,26.1,19.9,30.14,NW,317,0.0,3.0,77,0.00,,,0.00,Wunderground v.1.15,2013-03-03 14:44:00,
2013-03-03 09:49:00,26.1,19.9,30.14,NW,317,1.0,4.0,77,0.00,,,0.00,Wunderground v.1.15,2013-03-03 14:49:00,
2013-03-03 09:54:00,26.1,20.2,30.15,NW,317,4.0,5.0,78,0.00,,,0.00,Wunderground v.1.15,2013-03-03 14:54:00,
2013-03-03 09:59:00,26.1,19.9,30.15,NW,315,2.0,9.0,77,0.00,,,0.00,Wunderground v.1.15,2013-03-03 14:59:00,
2013-03-03 10:04:00,26.1,19.9,30.15,NW,307,5.0,10.0,77,0.00,,,0.00,Wunderground v.1.15,2013-03-03 15:04:00,
2013-03-03 10:09:00,26.1,20.2,30.15,NW,307,5.0,10.0,78,0.00,,,0.00,Wunderground v.1.15,2013-03-03 15:09:00,
2013-03-03 10:14:00,26.1,20.2,30.15,WNW,301,0.0,6.0,78,0.00,,,0.00,Wunderground v.1.15,2013-03-03 15:14:00,
2013-03-03 10:19:00,26.4,20.8,30.15,NW,306,2.0,6.0,79,0.00,,,0.00,Wunderground v.1.15,2013-03-03 15:19:00,
2013-03-03 10:24:00,26.6,21.0,30.14,NW,306,3.0,4.0,79,0.00,,,0.00,Wunderground v.1.15,2013-03-03 15:24:00,
2013-03-03 10:29:00,26.6,20.7,30.14,NW,306,0.0,4.0,78,0.00,,,0.00,Wunderground v.1.15,2013-03-03 15:29:00,
2013-03-03 10:34:00,26.6,20.7,30.14,NW,306,1.0,3.0,78,0.00,,,0.00,Wunderground v.1.15,2013-03-03 15:34:00,
2013-03-03 10:39:00,26.7,21.1,30.15,NW,306,0.0,3.0,79,0.00,,,0.00,Wunderground v.1.15,2013-03-03 15:39:00,
2013-03-03 10:44:00,26.9,21.3,30.15,NW,306,0.0,1.0,79,0.00,,,0.00,Wunderground v.1.15,2013-03-03 15:44:00,
2013-03-03 10:49:00,27.0,21.1,30.15,NW,306,0.0,3.0,78,0.00,,,0.00,Wunderground v.1.15,2013-03-03 15:49:00,
2013-03-03 10:54:00,27.0,20.7,30.15,NW,307,0.0,5.0,77,0.00,,,0.00,Wunderground v.1.15,2013-03-03 15:54:00,
2013-03-03 10:59:00,27.2,20.9,30.15,NW,307,0.0,5.0,77,0.00,,,0.00,Wunderground v.1.15,2013-03-03 15:59:00,
2013-03-03 11:04:00,27.5,20.9,30.15,NW,322,3.0,9.0,76,0.00,,,0.00,Wunderground v.1.15,2013-03-03 16:04:00,
2013-03-03 11:09:00,27.5,20.3,30.15,NW,315,2.0,9.0,74,0.00,,,0.00,Wunderground v.1.15,2013-03-03 16:09:00,
2013-03-03 11:14:00,27.5,20.0,30.15,NW,315,3.0,3.0,73,0.00,,,0.00,Wunderground v.1.15,2013-03-03 16:14:00,
2013-03-03 11:19:00,27.6,20.1,30.15,WNW,288,3.0,7.0,73,0.00,,,0.00,Wunderground v.1.15,2013-03-03 16:19:00,
2013-03-03 11:24:00,27.5,19.7,30.15,NNW,333,1.0,6.0,72,0.00,,,0.00,Wunderground v.1.15,2013-03-03 16:24:00,
2013-03-03 11:29:00,27.5,20.0,30.15,NNW,330,4.0,6.0,73,0.00,,,0.00,Wunderground v.1.15,2013-03-03 16:29:00,
2013-03-03 11:34:00,27.3,19.8,30.15,NNW,330,0.0,4.0,73,0.00,,,0.00,Wunderground v.1.15,2013-03-03 16:34:00,
2013-03-03 11:39:00,27.5,20.3,30.15,NW,322,3.0,6.0,74,0.00,,,0.00,Wunderground v.1.15,2013-03-03 16:39:00,
2013-03-03 11:44:00,27.5,20.3,30.15,NW,322,2.0,5.0,74,0.00,,,0.00,Wunderground v.1.15,2013-03-03 16:44:00,
2013-03-03 11:49:00,27.8,21.2,30.15,NW,323,6.0,10.0,76,0.00,,,0.00,Wunderground v.1.15,2013-03-03 16:49:00,
2013-03-03 11:54:00,28.4,21.5,30.15,NW,309,6.0,11.0,75,0.00,,,0.00,Wunderground v.1.15,2013-03-03 16:54:00,
2013-03-03 12:00:00,28.5,19.6,30.15,NNW,330,5.0,11.0,69,0.00,,,0.00,Wunderground v.1.15,2013-03-03 17:00:00,
2013-03-03 12:05:00,28.8,19.9,30.15,NW,322,5.0,7.0,69,0.00,,,0.00,Wunderground v.1.15,2013-03-03 17:05:00,
2013-03-03 12:10:00,28.8,19.9,30.15,NW,325,4.0,10.0,69,0.00,,,0.00,Wunderground v.1.15,2013-03-03 17:10:00,
2013-03-03 12:15:00,28.7,19.8,30.15,NW,314,4.0,10.0,69,0.00,,,0.00,Wunderground v.1.15,2013-03-03 17:15:00,
2013-03-03 12:20:00,28.2,19.3,30.15,WNW,302,4.0,12.0,69,0.00,,,0.00,Wunderground v.1.15,2013-03-03 17:20:00,
2013-03-03 12:25:00,27.9,19.0,30.16,NW,325,0.0,9.0,69,0.00,,,0.00,Wunderground v.1.15,2013-03-03 17:25:00,
2013-03-03 12:30:00,27.6,19.8,30.16,NW,318,2.0,5.0,72,0.00,,,0.00,Wunderground v.1.15,2013-03-03 17:30:00,
2013-03-03 12:35:00,27.8,20.6,30.16,West,276,7.0,10.0,74,0.00,,,0.00,Wunderground v.1.15,2013-03-03 17:35:00,
2013-03-03 12:40:00,27.8,20.6,30.15,NW,312,9.0,9.0,74,0.00,,,0.00,Wunderground v.1.15,2013-03-03 17:40:00,
2013-03-03 12:45:00,27.6,20.1,30.15,WNW,302,8.0,12.0,73,0.00,,,0.00,Wunderground v.1.15,2013-03-03 17:45:00,
2013-03-03 12:50:00,27.3,19.8,30.15,NNW,333,3.0,6.0,73,0.00,,,0.00,Wunderground v.1.15,2013-03-03 17:50:00,
2013-03-03 12:55:00,27.3,20.4,30.15,NW,323,3.0,6.0,75,0.00,,,0.00,Wunderground v.1.15,2013-03-03 17:55:00,
2013-03-03 13:00:00,27.6,20.1,30.15,North,0,6.0,6.0,73,0.00,,,0.00,Wunderground v.1.15,2013-03-03 18:00:00,
2013-03-03 13:05:00,27.8,20.3,30.15,NNW,327,5.0,12.0,73,0.00,,,0.00,Wunderground v.1.15,2013-03-03 18:05:00,
2013-03-03 13:10:00,28.1,20.9,30.15,NW,323,4.0,6.0,74,0.00,,,0.00,Wunderground v.1.15,2013-03-03 18:10:00,
2013-03-03 13:15:00,28.7,21.8,30.15,NNW,329,7.0,10.0,75,0.00,,,0.00,Wunderground v.1.15,2013-03-03 18:15:00,
2013-03-03 13:20:00,28.7,20.1,30.15,NW,309,10.0,10.0,70,0.00,,,0.00,Wunderground v.1.15,2013-03-03 18:20:00,
2013-03-03 13:25:00,28.7,19.8,30.14,NW,320,6.0,13.0,69,0.00,,,0.00,Wunderground v.1.15,2013-03-03 18:25:00,
2013-03-03 13:30:00,28.8,19.9,30.14,NNW,340,4.0,6.0,69,0.00,,,0.00,Wunderground v.1.15,2013-03-03 18:30:00,
2013-03-03 13:35:00,29.0,19.8,30.14,NW,313,3.0,11.0,68,0.00,,,0.00,Wunderground v.1.15,2013-03-03 18:35:00,
2013-03-03 13:40:00,29.1,19.8,30.13,NW,311,4.0,4.0,68,0.00,,,0.00,Wunderground v.1.15,2013-03-03 18:40:00,
2013-03-03 13:45:00,29.3,19.7,30.13,NW,309,1.0,11.0,67,0.00,,,0.00,Wunderground v.1.15,2013-03-03 18:45:00,
2013-03-03 13:50:00,29.3,18.3,30.13,NW,323,3.0,5.0,63,0.00,,,0.00,Wunderground v.1.15,2013-03-03 18:50:00,
2013-03-03 13:55:00,29.4,18.0,30.13,NW,308,6.0,10.0,62,0.00,,,0.00,Wunderground v.1.15,2013-03-03 18:55:00,
2013-03-03 14:00:00,30.1,19.0,30.13,NW,323,3.0,4.0,63,0.00,,,0.00,Wunderground v.1.15,2013-03-03 19:00:00,
2013-03-03 14:05:00,30.3,18.1,30.13,WNW,302,3.0,10.0,60,0.00,,,0.00,Wunderground v.1.15,2013-03-03 19:05:00,
2013-03-03 14:10:00,30.4,17.8,30.13,NNW,344,6.0,6.0,59,0.00,,,0.00,Wunderground v.1.15,2013-03-03 19:10:00,
2013-03-03 14:15:00,30.6,16.7,30.13,WNW,300,8.0,11.0,56,0.00,,,0.00,Wunderground v.1.15,2013-03-03 19:15:00,
2013-03-03 14:20:00,30.9,18.2,30.13,North,351,7.0,11.0,59,0.00,,,0.00,Wunderground v.1.15,2013-03-03 19:20:00,
2013-03-03 14:26:00,31.8,17.0,30.12,NW,309,4.0,14.0,54,0.00,,,0.00,Wunderground v.1.15,2013-03-03 19:26:00,
2013-03-03 14:31:00,32.9,18.5,30.12,WSW,238,0.0,6.0,55,0.00,,,0.00,Wunderground v.1.15,2013-03-03 19:31:00,
2013-03-03 14:36:00,33.8,20.6,30.12,WNW,297,1.0,7.0,58,0.00,,,0.00,Wunderground v.1.15,2013-03-03 19:36:00,
2013-03-03 14:41:00,34.0,19.9,30.11,NNW,331,7.0,10.0,56,0.00,,,0.00,Wunderground v.1.15,2013-03-03 19:41:00,
2013-03-03 14:46:00,33.8,17.6,30.11,NNW,338,3.0,10.0,51,0.00,,,0.00,Wunderground v.1.15,2013-03-03 19:46:00,
2013-03-03 14:51:00,33.5,18.2,30.11,NNW,344,5.0,7.0,53,0.00,,,0.00,Wunderground v.1.15,2013-03-03 19:51:00,
2013-03-03 14:56:00,33.5,17.3,30.11,WNW,289,6.0,9.0,51,0.00,,,0.00,Wunderground v.1.15,2013-03-03 19:56:00,
2013-03-03 15:01:00,33.4,18.5,30.11,WNW,298,4.0,10.0,54,0.00,,,0.00,Wunderground v.1.15,2013-03-03 20:01:00,
2013-03-03 15:06:00,33.8,19.3,30.11,NW,305,6.0,12.0,55,0.00,,,0.00,Wunderground v.1.15,2013-03-03 20:06:00,
2013-03-03 15:11:00,33.7,17.5,30.12,NW,304,3.0,9.0,51,0.00,,,0.00,Wunderground v.1.15,2013-03-03 20:11:00,
2013-03-03 15:16:00,34.0,17.3,30.12,NW,324,7.0,9.0,50,0.00,,,0.00,Wunderground v.1.15,2013-03-03 20:16:00,
2013-03-03 15:21:00,34.1,17.4,30.12,WNW,303,7.0,10.0,50,0.00,,,0.00,Wunderground v.1.15,2013-03-03 20:21:00,
2013-03-03 15:26:00,33.5,17.7,30.12,NW,310,4.0,12.0,52,0.00,,,0.00,Wunderground v.1.15,2013-03-03 20:26:00,
2013-03-03 15:31:00,34.0,17.3,30.12,NW,321,5.0,11.0,50,0.00,,,0.00,Wunderground v.1.15,2013-03-03 20:31:00,
2013-03-03 15:36:00,34.3,18.0,30.12,North,349,7.0,13.0,51,0.00,,,0.00,Wunderground v.1.15,2013-03-03 20:36:00,
2013-03-03 15:41:00,34.4,17.2,30.12,NW,308,5.0,6.0,49,0.00,,,0.00,Wunderground v.1.15,2013-03-03 20:41:00,
2013-03-03 15:46:00,34.9,17.7,30.12,WNW,298,7.0,9.0,49,0.00,,,0.00,Wunderground v.1.15,2013-03-03 20:46:00,
2013-03-03 15:51:00,35.0,17.7,30.12,NW,321,6.0,10.0,49,0.00,,,0.00,Wunderground v.1.15,2013-03-03 20:51:00,
2013-03-03 15:56:00,35.0,16.8,30.12,NW,316,7.0,12.0,47,0.00,,,0.00,Wunderground v.1.15,2013-03-03 20:56:00,
2013-03-03 16:01:00,35.2,18.9,30.12,NW,313,8.0,11.0,51,0.00,,,0.00,Wunderground v.1.15,2013-03-03 21:01:00,
2013-03-03 16:06:00,34.9,17.7,30.12,NNW,333,4.0,11.0,49,0.00,,,0.00,Wunderground v.1.15,2013-03-03 21:06:00,
2013-03-03 16:11:00,34.6,16.9,30.12,North,352,1.0,6.0,48,0.00,,,0.00,Wunderground v.1.15,2013-03-03 21:11:00,
2013-03-03 16:16:00,34.3,16.6,30.12,NNW,340,2.0,12.0,48,0.00,,,0.00,Wunderground v.1.15,2013-03-03 21:16:00,
2013-03-03 16:22:00,34.1,16.9,30.12,WNW,297,10.0,10.0,49,0.00,,,0.00,Wunderground v.1.15,2013-03-03 21:22:00,
2013-03-03 16:27:00,34.1,16.9,30.12,NW,318,2.0,10.0,49,0.00,,,0.00,Wunderground v.1.15,2013-03-03 21:27:00,
2013-03-03 16:32:00,34.9,17.2,30.12,WNW,302,7.0,7.0,48,0.00,,,0.00,Wunderground v.1.15,2013-03-03 21:32:00,
2013-03-03 16:37:00,34.9,16.7,30.12,NW,316,6.0,10.0,47,0.00,,,0.00,Wunderground v.1.15,2013-03-03 21:37:00,
2013-03-03 16:42:00,34.4,16.7,30.12,NW,310,6.0,9.0,48,0.00,,,0.00,Wunderground v.1.15,2013-03-03 21:42:00,
2013-03-03 16:47:00,34.0,16.3,30.12,NW,304,6.0,10.0,48,0.00,,,0.00,Wunderground v.1.15,2013-03-03 21:47:00,
2013-03-03 16:52:00,33.8,17.1,30.12,NW,304,3.0,6.0,50,0.00,,,0.00,Wunderground v.1.15,2013-03-03 21:52:00,
2013-03-03 16:57:00,34.1,16.4,30.12,WNW,303,0.0,6.0,48,0.00,,,0.00,Wunderground v.1.15,2013-03-03 21:57:00,
2013-03-03 17:02:00,34.6,16.9,30.12,NW,318,7.0,7.0,48,0.00,,,0.00,Wunderground v.1.15,2013-03-03 22:02:00,
2013-03-03 17:07:00,34.3,16.6,30.12,NW,315,2.0,11.0,48,0.00,,,0.00,Wunderground v.1.15,2013-03-03 22:07:00,
2013-03-03 17:12:00,34.1,16.9,30.12,NW,326,5.0,12.0,49,0.00,,,0.00,Wunderground v.1.15,2013-03-03 22:12:00,
2013-03-03 17:17:00,34.1,16.9,30.12,NW,326,0.0,12.0,49,0.00,,,0.00,Wunderground v.1.15,2013-03-03 22:17:00,
2013-03-03 17:22:00,34.1,16.9,30.12,WNW,300,6.0,8.0,49,0.00,,,0.00,Wunderground v.1.15,2013-03-03 22:22:00,
2013-03-03 17:27:00,34.0,16.3,30.12,NW,307,2.0,8.0,48,0.00,,,0.00,Wunderground v.1.15,2013-03-03 22:27:00,
2013-03-03 17:32:00,34.0,17.3,30.12,WNW,301,10.0,10.0,50,0.00,,,0.00,Wunderground v.1.15,2013-03-03 22:32:00,
2013-03-03 17:37:00,33.8,16.6,30.12,NW,313,4.0,11.0,49,0.00,,,0.00,Wunderground v.1.15,2013-03-03 22:37:00,
2013-03-03 17:42:00,33.7,17.0,30.13,NW,315,3.0,5.0,50,0.00,,,0.00,Wunderground v.1.15,2013-03-03 22:42:00,
2013-03-03 17:47:00,33.7,16.5,30.13,NW,315,1.0,5.0,49,0.00,,,0.00,Wunderground v.1.15,2013-03-03 22:47:00,
2013-03-03 17:52:00,33.5,16.8,30.13,NW,315,1.0,4.0,50,0.00,,,0.00,Wunderground v.1.15,2013-03-03 22:52:00,
2013-03-03 17:57:00,33.5,16.8,30.13,NNW,337,2.0,4.0,50,0.00,,,0.00,Wunderground v.1.15,2013-03-03 22:57:00,
2013-03-03 18:02:00,33.4,17.6,30.13,NNW,335,0.0,1.0,52,0.00,,,0.00,Wunderground v.1.15,2013-03-03 23:02:00,
2013-03-03 18:07:00,33.2,16.5,30.13,North,0,0.0,4.0,50,0.00,,,0.00,Wunderground v.1.15,2013-03-03 23:07:00,
2013-03-03 18:12:00,33.1,17.4,30.13,North,0,2.0,3.0,52,0.00,,,0.00,Wunderground v.1.15,2013-03-03 23:12:00,
2013-03-03 18:17:00,32.8,16.6,30.13,North,0,0.0,3.0,51,0.00,,,0.00,Wunderground v.1.15,2013-03-03 23:17:00,
2013-03-03 18:22:00,32.7,17.0,30.13,North,0,0.0,1.0,52,0.00,,,0.00,Wunderground v.1.15,2013-03-03 23:22:00,
2013-03-03 18:27:00,32.4,16.7,30.13,North,0,3.0,5.0,52,0.00,,,0.00,Wunderground v.1.15,2013-03-03 23:27:00,
2013-03-03 18:32:00,32.2,16.5,30.13,North,0,0.0,4.0,52,0.00,,,0.00,Wunderground v.1.15,2013-03-03 23:32:00,
2013-03-03 18:37:00,31.9,17.1,30.13,North,0,0.0,4.0,54,0.00,,,0.00,Wunderground v.1.15,2013-03-03 23:37:00,
2013-03-03 18:42:00,31.8,17.0,30.14,North,0,0.0,1.0,54,0.00,,,0.00,Wunderground v.1.15,2013-03-03 23:42:00,
2013-03-03 18:47:00,31.3,17.8,30.14,North,0,0.0,1.0,57,0.00,,,0.00,Wunderground v.1.15,2013-03-03 23:47:00,
2013-03-03 18:52:00,31.0,17.1,30.14,North,0,0.0,0.0,56,0.00,,,0.00,Wunderground v.1.15,2013-03-03 23:52:00,
2013-03-03 18:57:00,30.9,17.0,30.14,North,0,0.0,0.0,56,0.00,,,0.00,Wunderground v.1.15,2013-03-03 23:57:00,
2013-03-03 19:02:00,30.6,16.7,30.14,North,0,0.0,0.0,56,0.00,,,0.00,Wunderground v.1.15,2013-03-04 00:02:00,
2013-03-03 19:07:00,30.3,17.3,30.14,North,0,0.0,0.0,58,0.00,,,0.00,Wunderground v.1.15,2013-03-04 00:07:00,
2013-03-03 19:13:00,30.1,15.9,30.14,North,0,0.0,0.0,55,0.00,,,0.00,Wunderground v.1.15,2013-03-04 00:13:00,
2013-03-03 19:18:00,30.1,16.3,30.14,North,0,0.0,0.0,56,0.00,,,0.00,Wunderground v.1.15,2013-03-04 00:18:00,
2013-03-03 19:23:00,30.0,16.6,30.14,North,0,0.0,0.0,57,0.00,,,0.00,Wunderground v.1.15,2013-03-04 00:23:00,
2013-03-03 19:28:00,30.0,16.2,30.15,North,0,0.0,0.0,56,0.00,,,0.00,Wunderground v.1.15,2013-03-04 00:28:00,
2013-03-03 19:33:00,29.8,16.0,30.15,North,0,0.0,0.0,56,0.00,,,0.00,Wunderground v.1.15,2013-03-04 00:33:00,
2013-03-03 19:38:00,29.8,16.4,30.15,North,0,0.0,0.0,57,0.00,,,0.00,Wunderground v.1.15,2013-03-04 00:38:00,
2013-03-03 19:43:00,29.8,18.4,30.15,North,0,0.0,0.0,62,0.00,,,0.00,Wunderground v.1.15,2013-03-04 00:43:00,
2013-03-03 19:48:00,29.5,17.7,30.15,North,0,0.0,0.0,61,0.00,,,0.00,Wunderground v.1.15,2013-03-04 00:48:00,
2013-03-03 19:53:00,29.4,16.0,30.15,North,0,0.0,0.0,57,0.00,,,0.00,Wunderground v.1.15,2013-03-04 00:53:00,
2013-03-03 19:58:00,29.5,15.3,30.15,North,0,0.0,0.0,55,0.00,,,0.00,Wunderground v.1.15,2013-03-04 00:58:00,
2013-03-03 20:03:00,29.5,15.3,30.15,North,0,0.0,0.0,55,0.00,,,0.00,Wunderground v.1.15,2013-03-04 01:03:00,
2013-03-03 20:08:00,29.5,15.3,30.15,North,0,0.0,0.0,55,0.00,,,0.00,Wunderground v.1.15,2013-03-04 01:08:00,
2013-03-03 20:13:00,29.7,15.5,30.15,North,0,0.0,0.0,55,0.00,,,0.00,Wunderground v.1.15,2013-03-04 01:13:00,
2013-03-03 20:18:00,29.7,15.9,30.15,North,0,0.0,0.0,56,0.00,,,0.00,Wunderground v.1.15,2013-03-04 01:18:00,
2013-03-03 20:23:00,29.5,16.5,30.15,North,0,0.0,0.0,58,0.00,,,0.00,Wunderground v.1.15,2013-03-04 01:23:00,
2013-03-03 20:28:00,29.4,16.0,30.15,North,0,0.0,0.0,57,0.00,,,0.00,Wunderground v.1.15,2013-03-04 01:28:00,
2013-03-03 20:33:00,29.3,17.5,30.15,North,0,0.0,0.0,61,0.00,,,0.00,Wunderground v.1.15,2013-03-04 01:33:00,
2013-03-03 20:38:00,29.1,17.3,30.15,North,0,0.0,0.0,61,0.00,,,0.00,Wunderground v.1.15,2013-03-04 01:38:00,
2013-03-03 20:43:00,29.0,16.4,30.15,North,0,0.0,0.0,59,0.00,,,0.00,Wunderground v.1.15,2013-03-04 01:43:00,
2013-03-03 20:48:00,29.0,17.2,30.15,North,0,0.0,0.0,61,0.00,,,0.00,Wunderground v.1.15,2013-03-04 01:48:00,
2013-03-03 20:53:00,28.8,17.0,30.15,North,0,0.0,0.0,61,0.00,,,0.00,Wunderground v.1.15,2013-03-04 01:53:00,
2013-03-03 20:58:00,28.7,16.9,30.16,North,0,0.0,1.0,61,0.00,,,0.00,Wunderground v.1.15,2013-03-04 01:58:00,
2013-03-03 21:03:00,28.7,15.8,30.16,North,0,0.0,0.0,58,0.00,,,0.00,Wunderground v.1.15,2013-03-04 02:03:00,
2013-03-03 21:08:00,29.0,16.4,30.16,North,0,0.0,1.0,59,0.00,,,0.00,Wunderground v.1.15,2013-03-04 02:08:00,
2013-03-03 21:13:00,29.0,16.4,30.16,North,0,0.0,0.0,59,0.00,,,0.00,Wunderground v.1.15,2013-03-04 02:13:00,
2013-03-03 21:19:00,28.8,16.3,30.16,North,0,0.0,0.0,59,0.00,,,0.00,Wunderground v.1.15,2013-03-04 02:19:00,
2013-03-03 21:24:00,28.7,15.8,30.16,North,0,0.0,0.0,58,0.00,,,0.00,Wunderground v.1.15,2013-03-04 02:24:00,
2013-03-03 21:29:00,28.5,15.6,30.16,North,0,0.0,0.0,58,0.00,,,0.00,Wunderground v.1.15,2013-03-04 02:29:00,
2013-03-03 21:34:00,28.5,15.6,30.16,North,0,0.0,0.0,58,0.00,,,0.00,Wunderground v.1.15,2013-03-04 02:34:00,
2013-03-03 21:39:00,28.5,16.4,30.16,North,0,0.0,0.0,60,0.00,,,0.00,Wunderground v.1.15,2013-03-04 02:39:00,
2013-03-03 21:44:00,28.5,16.0,30.16,North,0,0.0,0.0,59,0.00,,,0.00,Wunderground v.1.15,2013-03-04 02:44:00,
2013-03-03 21:49:00,28.5,16.7,30.16,North,0,0.0,0.0,61,0.00,,,0.00,Wunderground v.1.15,2013-03-04 02:49:00,
2013-03-03 21:54:00,28.5,15.6,30.16,North,0,0.0,0.0,58,0.00,,,0.00,Wunderground v.1.15,2013-03-04 02:54:00,
2013-03-03 21:59:00,28.4,17.0,30.15,North,0,0.0,0.0,62,0.00,,,0.00,Wunderground v.1.15,2013-03-04 02:59:00,
2013-03-03 22:04:00,28.4,16.3,30.15,North,0,0.0,0.0,60,0.00,,,0.00,Wunderground v.1.15,2013-03-04 03:04:00,
2013-03-03 22:09:00,28.4,16.3,30.15,North,0,0.0,0.0,60,0.00,,,0.00,Wunderground v.1.15,2013-03-04 03:09:00,
2013-03-03 22:14:00,28.2,16.5,30.15,North,0,0.0,0.0,61,0.00,,,0.00,Wunderground v.1.15,2013-03-04 03:14:00,
2013-03-03 22:19:00,28.1,16.7,30.15,North,0,0.0,0.0,62,0.00,,,0.00,Wunderground v.1.15,2013-03-04 03:19:00,
2013-03-03 22:24:00,27.8,17.2,30.15,North,0,0.0,0.0,64,0.00,,,0.00,Wunderground v.1.15,2013-03-04 03:24:00,
2013-03-03 22:29:00,27.6,16.6,30.16,North,0,0.0,2.0,63,0.00,,,0.00,Wunderground v.1.15,2013-03-04 03:29:00,
2013-03-03 22:34:00,27.6,16.3,30.16,North,0,0.0,1.0,62,0.00,,,0.00,Wunderground v.1.15,2013-03-04 03:34:00,
2013-03-03 22:39:00,27.6,16.3,30.16,North,0,1.0,1.0,62,0.00,,,0.00,Wunderground v.1.15,2013-03-04 03:39:00,
2013-03-03 22:44:00,27.6,15.9,30.16,North,0,0.0,2.0,61,0.00,,,0.00,Wunderground v.1.15,2013-03-04 03:44:00,
2013-03-03 22:49:00,27.8,16.1,30.16,North,0,0.0,2.0,61,0.00,,,0.00,Wunderground v.1.15,2013-03-04 03:49:00,
2013-03-03 22:54:00,27.9,16.2,30.15,North,0,0.0,2.0,61,0.00,,,0.00,Wunderground v.1.15,2013-03-04 03:54:00,
2013-03-03 22:59:00,27.9,16.6,30.15,North,0,0.0,2.0,62,0.00,,,0.00,Wunderground v.1.15,2013-03-04 03:59:00,
2013-03-03 23:04:00,28.1,16.0,30.15,North,0,0.0,0.0,60,0.00,,,0.00,Wunderground v.1.15,2013-03-04 04:04:00,
2013-03-03 23:09:00,28.2,15.3,30.15,North,0,0.0,2.0,58,0.00,,,0.00,Wunderground v.1.15,2013-03-04 04:09:00,
2013-03-03 23:14:00,28.4,15.5,30.15,North,0,0.0,0.0,58,0.00,,,0.00,Wunderground v.1.15,2013-03-04 04:14:00,
2013-03-03 23:19:00,28.1,16.4,30.15,North,0,0.0,2.0,61,0.00,,,0.00,Wunderground v.1.15,2013-03-04 04:19:00,
2013-03-03 23:24:00,27.9,16.6,30.15,North,0,0.0,2.0,62,0.00,,,0.00,Wunderground v.1.15,2013-03-04 04:24:00,
2013-03-03 23:29:00,27.9,16.2,30.15,North,0,0.0,2.0,61,0.00,,,0.00,Wunderground v.1.15,2013-03-04 04:29:00,
2013-03-03 23:34:00,27.9,15.8,30.15,North,0,0.0,2.0,60,0.00,,,0.00,Wunderground v.1.15,2013-03-04 04:34:00,
2013-03-03 23:39:00,27.9,15.8,30.16,North,0,0.0,2.0,60,0.00,,,0.00,Wunderground v.1.15,2013-03-04 04:39:00,
2013-03-03 23:44:00,27.9,16.2,30.16,North,0,0.0,0.0,61,0.00,,,0.00,Wunderground v.1.15,2013-03-04 04:44:00,
2013-03-03 23:49:00,27.9,15.4,30.16,North,0,0.0,0.0,59,0.00,,,0.00,Wunderground v.1.15,2013-03-04 04:49:00,
2013-03-03 23:55:00,28.1,15.2,30.15,North,0,0.0,0.0,58,0.00,,,0.00,Wunderground v.1.15,2013-03-04 04:55:00,